EW6140 Weather Reports


time (UTC)temp
C
wind
direction
speed
KPH
gust
KPH
rain 1hr
cm
rain 24hr
cm
rain mn
cm
humidity
%
barometer
mb
20260906003113 -17 0.0 0.0 0.00 0.00 0.00 1015.6
20260906002558 -17 0.0 0.0 0.00 0.00 0.00 1015.7
20260906002059 -17 0.0 0.0 0.00 0.00 0.00 1015.7
20260906001605 -17 0.0 0.0 0.00 0.00 0.00 1015.8
20260906001058 -17 0.0 0.0 0.00 0.00 0.00 1015.8
20260906000555 -17 0.0 0.0 0.00 0.00 0.00 1015.7
20260906000108 -17 0.0 0.0 0.00 0.00 0.00 1015.7
20260905235555 -17 0.0 0.0 0.00 0.00 0.00 1015.7
20260905235057 -17 0.0 0.0 0.00 0.00 0.00 1015.7
20260905234606 -17 0.0 0.0 0.00 0.00 0.00 1015.5
20260905234059 -17 0.0 0.0 0.00 0.00 0.00 1015.6
20260905233559 -17 0.0 0.0 0.00 0.00 0.00 1015.6
20260905233130 -17 0.0 0.0 0.00 0.00 0.00 1015.6
20260905232555 -17 0.0 0.0 0.00 0.00 0.00 1015.6
20260905232055 -17 0.0 0.0 0.00 0.00 0.00 1015.5
20260905231601 -17 0.0 0.0 0.00 0.00 0.00 1015.5
20260905231056 -17 0.0 0.0 0.00 0.00 0.00 1015.4
20260905230559 -17 0.0 0.0 0.00 0.00 0.00 1015.4
20260905230105 -17 0.0 0.0 0.00 0.00 0.00 1015.4
20260905225556 18 0.0 0.0 0.00 0.00 0.00 84 1015.4
20260905225058 18 0.0 0.0 0.00 0.00 0.00 84 1015.6
20260905224620 18 0 0.0 0.0 0.00 0.00 0.00 84 1015.5
20260905224056 18 0 0.0 0.0 0.00 0.00 0.00 84 1015.6
20260905223555 18 0 0.0 0.0 0.00 0.00 0.00 84 1015.4
20260905223107 18 0 0.0 0.0 0.00 0.00 0.00 83 1015.5
20260905222555 18 0 0.0 0.0 0.00 0.00 0.00 83 1015.6
20260905222058 18 0 0.0 0.0 0.00 0.00 0.00 82 1015.4
20260905221601 18 0 0.0 0.0 0.00 0.00 0.00 82 1015.3
20260905221059 18 0 0.0 0.0 0.00 0.00 0.00 82 1015.3
20260905220558 18 0 0.0 0.0 0.00 0.00 0.00 81 1015.2
20260905220106 19 0 0.0 0.0 0.00 0.00 0.00 81 1015.1
20260905215557 19 0 0.0 0.0 0.00 0.00 0.00 81 1015.1
20260905215056 19 0 0.0 1.6 0.00 0.00 0.00 81 1015.0
20260905214602 19 0 0.0 1.6 0.00 0.00 0.00 80 1015.0
20260905214149 19 0 0.0 0.0 0.00 0.00 0.00 80 1015.0
20260905213558 20 0 0.0 1.6 0.00 0.00 0.00 80 1014.9
20260905213111 20 0 0.0 1.6 0.00 0.00 0.00 80 1014.7
20260905212555 20 0 0.0 0.0 0.00 0.00 0.00 81 1014.7
20260905212054 20 0 0.0 0.0 0.00 0.00 0.00 80 1014.8
20260905211603 20 0 0.0 0.0 0.00 0.00 0.00 79 1014.7
20260905211056 20 0 0.0 0.0 0.00 0.00 0.00 79 1014.7
20260905210555 20 0 0.0 0.0 0.00 0.00 0.00 78 1014.6
20260905205558 20 0 0.0 3.2 0.00 0.00 0.00 77 1014.8
20260905205058 20 0 0.0 4.8 0.00 0.00 0.00 77 1014.5
20260905204602 20 0 0.0 4.8 0.00 0.00 0.00 77 1014.6
20260905204057 20 360 0.0 4.8 0.00 0.00 0.00 77 1014.7
20260905203601 20 0 0.0 3.2 0.00 0.00 0.00 77 1014.9
20260905203106 20 0 0.0 1.6 0.00 0.00 0.00 77 1014.7
20260905202558 20 0 0.0 1.6 0.00 0.00 0.00 77 1014.8
20260905202100 20 0 0.0 1.6 0.00 0.00 0.00 77 1014.8
20260905201611 20 0 0.0 3.2 0.00 0.00 0.00 75 1014.9
20260905201056 20 0 0.0 4.8 0.00 0.00 0.00 74 1014.8
20260905200556 20 0 0.0 4.8 0.00 0.00 0.00 72 1015.0
20260905200107 20 0 1.6 4.8 0.00 0.00 0.00 72 1014.9
20260905195556 21 0 0.0 3.2 0.00 0.00 0.00 71 1014.9
20260905195056 21 0 0.0 3.2 0.00 0.00 0.00 72 1014.7
20260905194604 21 0 0.0 0.0 0.00 0.00 0.00 73 1014.7
20260905194100 21 0 0.0 0.0 0.00 0.00 0.00 72 1014.7
20260905193559 21 0 0.0 0.0 0.00 0.00 0.00 71 1014.6
20260905193106 21 0 0.0 0.0 0.00 0.00 0.00 72 1014.6
20260905192558 21 0 0.0 1.6 0.00 0.00 0.00 70 1014.8
20260905192057 21 0 0.0 4.8 0.00 0.00 0.00 68 1014.7
20260905191610 22 0 0.0 4.8 0.00 0.00 0.00 73 1014.6
20260905191057 22 0 0.0 1.6 0.00 0.00 0.00 72 1014.6
20260905190556 22 0 0.0 12.9 0.00 0.00 0.00 69 1014.6
20260905190132 22 0 0.0 12.9 0.00 0.00 0.00 69 1014.7
20260905185556 22 0 1.6 12.9 0.00 0.00 0.00 70 1014.6
20260905185100 21 259 0.0 3.2 0.00 0.00 0.00 70 1014.6
20260905184621 21 0 0.0 3.2 0.00 0.00 0.00 76 1014.6
20260905184101 21 0 0.0 0.0 0.00 0.00 0.00 72 1014.6
20260905183559 21 0 0.0 0.0 0.00 0.00 0.00 74 1014.7
20260905183105 21 0 0.0 0.0 0.00 0.00 0.00 72 1014.8
20260905182557 21 0 0.0 0.0 0.00 0.00 0.00 73 1014.8
20260905182058 20 0 0.0 0.0 0.00 0.00 0.00 75 1014.8
20260905181602 20 0 0.0 0.0 0.00 0.00 0.00 77 1014.8
20260905181056 20 0 0.0 0.0 0.00 0.00 0.00 77 1014.9
20260905180557 19 0 0.0 0.0 0.00 0.00 0.00 79 1014.8
20260905180059 19 0 0.0 0.0 0.00 0.00 0.00 79 1014.9
20260905175557 19 0 0.0 0.0 0.00 0.00 0.00 79 1014.9
20260905175057 19 0 0.0 0.0 0.00 0.00 0.00 79 1014.9
20260905174604 19 0 0.0 0.0 0.00 0.00 0.00 77 1014.9
20260905174056 19 0 0.0 0.0 0.00 0.00 0.00 76 1014.9
20260905173601 20 0 0.0 0.0 0.00 0.00 0.00 73 1014.9
20260905173104 20 0 0.0 0.0 0.00 0.00 0.00 71 1014.8
20260905172559 20 0 0.0 3.2 0.00 0.00 0.00 71 1014.9
20260905172100 21 0 0.0 3.2 0.00 0.00 0.00 72 1014.9
20260905171600 21 0 0.0 0.0 0.00 0.00 0.00 69 1014.9
20260905171058 21 0 0.0 4.8 0.00 0.00 0.00 74 1014.7
20260905170557 21 0 0.0 4.8 0.00 0.00 0.00 69 1014.7
20260905170120 21 0 0.0 0.0 0.00 0.00 0.00 69 1014.8
20260905165557 21 0 0.0 3.2 0.00 0.00 0.00 69 1014.8
20260905165059 22 0 0.0 3.2 0.00 0.00 0.00 66 1014.9
20260905164604 21 0 0.0 3.2 0.00 0.00 0.00 72 1014.9
20260905164057 21 0 0.0 4.8 0.00 0.00 0.00 75 1014.9
20260905163557 21 352 1.6 12.9 0.00 0.00 0.00 71 1015.0
20260905163106 21 64 0.0 12.9 0.00 0.00 0.00 71 1015.0
20260905162557 21 0 1.6 6.4 0.00 0.00 0.00 70 1015.0
20260905162056 21 0 0.0 3.2 0.00 0.00 0.00 67 1015.0
20260905161601 21 0 0.0 3.2 0.00 0.00 0.00 74 1014.9
20260905161058 21 0 0.0 3.2 0.00 0.00 0.00 72 1015.0
20260905160557 21 0 0.0 1.6 0.00 0.00 0.00 70 1015.0
20260905160110 21 0 0.0 1.6 0.00 0.00 0.00 71 1015.0
20260905155556 20 0 0.0 0.0 0.00 0.00 0.00 76 1015.1
20260905155056 20 0 0.0 1.6 0.00 0.00 0.00 73 1015.0
20260905154606 20 0 0.0 1.6 0.00 0.00 0.00 75 1015.0
20260905154057 20 0 0.0 3.2 0.00 0.00 0.00 72 1015.1
20260905153558 20 0 0.0 3.2 0.00 0.00 0.00 72 1014.9
20260905153102 20 0 0.0 6.4 0.00 0.00 0.00 71 1015.0
20260905152558 20 0 0.0 6.4 0.00 0.00 0.00 74 1015.1
20260905152057 20 0 0.0 4.8 0.00 0.00 0.00 74 1015.0
20260905151601 20 5 0.0 3.2 0.00 0.00 0.00 77 1015.0
20260905151058 20 0 0.0 6.4 0.00 0.00 0.00 75 1015.1
20260905150556 19 0 0.0 6.4 0.00 0.00 0.00 77 1015.1
20260905145557 19 0 0.0 1.6 0.00 0.00 0.00 79 1015.3
20260905145058 19 0 0.0 1.6 0.00 0.00 0.00 78 1015.2
20260905144603 19 0 0.0 8.0 0.00 0.00 0.00 76 1015.2
20260905144057 20 0 0.0 8.0 0.00 0.00 0.00 75 1015.2
20260905143558 20 0 0.0 0.0 0.00 0.00 0.00 78 1015.0
20260905143103 20 0 0.0 4.8 0.00 0.00 0.00 78 1015.1
20260905142558 19 0 0.0 4.8 0.00 0.00 0.00 80 1015.0
20260905142056 19 338 1.6 4.8 0.00 0.00 0.00 78 1014.9
20260905141630 18 331 0.0 4.8 0.00 0.00 0.00 79 1015.0
20260905141054 18 0 0.0 3.2 0.00 0.00 0.00 82 1015.1
20260905140558 18 340 0.0 3.2 0.00 0.00 0.00 81 1015.0
20260905135558 18 0 0.0 4.8 0.00 0.00 0.00 84 1014.9
20260905135055 18 0 0.0 4.8 0.00 0.00 0.00 84 1014.9
20260905134602 18 0 0.0 0.0 0.00 0.00 0.00 85 1014.9
20260905134058 17 0 0.0 1.6 0.00 0.00 0.00 86 1014.9
20260905133554 17 0 0.0 1.6 0.00 0.00 0.00 84 1014.9
20260905133058 17 0 0.0 0.0 0.00 0.00 0.00 86 1015.1
20260905132556 17 0 0.0 0.0 0.00 0.00 0.00 85 1015.1
20260905132057 17 0 0.0 8.0 0.00 0.00 0.00 86 1015.0
20260905131629 17 0 0.0 8.0 0.00 0.00 0.00 86 1015.1
20260905131055 17 14 0.0 4.8 0.00 0.00 0.00 87 1015.1
20260905130555 17 331 0.0 4.8 0.00 0.00 0.00 87 1015.2
20260905130114 17 0 0.0 4.8 0.00 0.00 0.00 87 1015.2
20260905125557 16 0 1.6 3.2 0.00 0.00 0.00 88 1015.2
20260905125056 16 10 0.0 0.0 0.00 0.00 0.00 88 1015.3
20260905124605 16 0 0.0 0.0 0.00 0.00 0.00 88 1015.3
20260905124055 16 0 0.0 0.0 0.00 0.00 0.00 90 1015.3
20260905123556 16 0 0.0 0.0 0.00 0.00 0.00 90 1015.3
20260905123110 16 0 0.0 0.0 0.00 0.00 0.00 91 1015.3
20260905122555 15 0 0.0 0.0 0.00 0.00 0.00 92 1015.3
20260905122056 15 0 0.0 0.0 0.00 0.00 0.00 92 1015.3
20260905121600 15 0 0.0 0.0 0.00 0.00 0.00 92 1015.2
20260905121056 15 0 0.0 0.0 0.00 0.00 0.00 92 1015.2
20260905120556 15 0 0.0 0.0 0.00 0.00 0.00 92 1015.2
20260905120105 15 0 0.0 0.0 0.00 0.00 0.00 92 1015.1
20260905115556 15 0 0.0 0.0 0.00 0.00 0.00 92 1015.0
20260905115056 14 0 0.0 0.0 0.00 0.00 0.00 92 1015.0
20260905114603 14 0 0.0 0.0 0.00 0.00 0.00 92 1015.0
20260905114057 -17 0.0 0.0 0.00 0.00 0.00 1015.0
20260905113558 -17 0.0 0.0 0.00 0.00 0.00 1014.9
20260905113112 -17 0.0 0.0 0.00 0.00 0.00 1014.9
20260905112556 -17 0.0 0.0 0.00 0.00 0.00 1014.9
20260905112056 -17 0.0 0.0 0.00 0.00 0.00 1014.9
20260905111603 -17 0.0 0.0 0.00 0.00 0.00 1014.7
20260905111057 -17 0.0 0.0 0.00 0.00 0.00 1014.6
20260905110557 -17 0.0 0.0 0.00 0.00 0.00 1014.5
20260905110104 -17 0.0 0.0 0.00 0.00 0.00 1014.4
20260905105558 -17 0.0 0.0 0.00 0.00 0.00 1014.3
20260905105100 -17 0.0 0.0 0.00 0.00 0.00 1014.3
20260905104604 -17 0.0 0.0 0.00 0.00 0.00 1014.2
20260905104057 -17 0.0 0.0 0.00 0.00 0.00 1014.1
20260905103558 -17 0.0 0.0 0.00 0.00 0.00 1013.9
20260905103104 -17 0.0 0.0 0.00 0.00 0.00 1014.0
20260905102556 -17 0.0 0.0 0.00 0.00 0.00 1013.9
20260905102058 -17 0.0 0.0 0.00 0.00 0.00 1013.9
20260905101631 -17 0.0 0.0 0.00 0.00 0.00 1013.9
20260905101059 -17 0.0 0.0 0.00 0.00 0.00 1013.9
20260905100557 -17 0.0 0.0 0.00 0.00 0.00 1013.7
20260905100107 -17 0.0 0.0 0.00 0.00 0.00 1013.8
20260905095557 -17 0.0 0.0 0.00 0.00 0.00 1013.7
20260905095057 -17 0.0 0.0 0.00 0.00 0.00 1013.8
20260905094603 -17 0.0 0.0 0.00 0.00 0.00 1013.9
20260905094056 -17 0.0 0.0 0.00 0.00 0.00 1014.0
20260905093557 -17 0.0 0.0 0.00 0.00 0.00 1014.0
20260905093103 -17 0.0 0.0 0.00 0.00 0.00 1013.9
20260905092558 -17 0.0 0.0 0.00 0.00 0.00 1013.9
20260905092056 -17 0.0 0.0 0.00 0.00 0.00 1014.1
20260905091629 -17 0.0 0.0 0.00 0.00 0.00 1014.1
20260905091058 -17 0.0 0.0 0.00 0.00 0.00 1014.1
20260905090556 -17 0.0 0.0 0.00 0.00 0.00 1014.1
20260905085558 -17 0.0 0.0 0.00 0.00 0.00 1014.0
20260905085057 -17 0.0 0.0 0.00 0.00 0.00 1014.1
20260905084617 -17 0.0 0.0 0.00 0.00 0.00 1014.2
20260905084057 -17 0.0 0.0 0.00 0.00 0.00 1014.2
20260905083557 -17 0.0 0.0 0.00 0.00 0.00 1014.1
20260905083118 -17 0.0 0.0 0.00 0.00 0.00 1014.1
20260905082557 -17 0.0 0.0 0.00 0.00 0.00 1014.2
20260905082058 -17 0.0 0.0 0.00 0.00 0.00 1014.2
20260905081605 -17 0.0 0.0 0.00 0.00 0.00 1014.0
20260905081057 -17 0.0 0.0 0.00 0.00 0.00 1014.1
20260905080557 -17 0.0 0.0 0.00 0.00 0.00 1014.1
20260905080109 -17 0.0 0.0 0.00 0.00 0.00 1014.1
20260905075559 -17 0.0 0.0 0.00 0.00 0.00 1014.1
20260905075056 -17 0.0 0.0 0.00 0.00 0.00 1014.2
20260905074603 -17 0.0 0.0 0.00 0.00 0.00 1014.2
20260905074058 -17 0.0 0.0 0.00 0.00 0.00 1014.1
20260905073557 -17 0.0 0.0 0.00 0.00 0.00 1013.9
20260905073101 -17 0.0 0.0 0.00 0.00 0.00 1014.0
20260905072603 -17 0.0 0.0 0.00 0.00 0.00 1014.0
20260905072100 -17 0.0 0.0 0.00 0.00 0.00 1014.1
20260905071621 -17 0.0 0.0 0.00 0.00 0.00 1014.1
20260905071101 -17 0.0 0.0 0.00 0.00 0.00 1014.1
20260905070557 -17 0.0 0.0 0.00 0.00 0.00 1014.3
20260905070121 -17 0.0 0.0 0.00 0.00 0.00 1014.3
20260905065559 -17 0.0 0.0 0.00 0.00 0.00 1014.3
20260905065056 -17 0.0 0.0 0.00 0.00 0.00 1014.4
20260905064617 -17 0.0 0.0 0.00 0.00 0.00 1014.4
20260905064057 -17 0.0 0.0 0.00 0.00 0.00 1014.4
20260905063557 -17 0.0 0.0 0.00 0.00 0.00 1014.5
20260905063111 -17 0.0 0.0 0.00 0.00 0.00 1014.5
20260905062557 -17 0.0 0.0 0.00 0.00 0.00 1014.5
20260905062058 -17 0.0 0.0 0.00 0.00 0.00 1014.4
20260905061618 -17 0.0 0.0 0.00 0.00 0.00 1014.4
20260905061057 -17 0.0 0.0 0.00 0.00 0.00 1014.5
20260905060557 -17 0.0 0.0 0.00 0.00 0.00 1014.5
20260905060105 -17 0.0 0.0 0.00 0.00 0.00 1014.4
20260905055558 -17 0.0 0.0 0.00 0.00 0.00 1014.5
20260905055057 -17 0.0 0.0 0.00 0.00 0.00 1014.5
20260905054604 -17 0.0 0.0 0.00 0.00 0.00 1014.6
20260905054057 -17 0.0 0.0 0.00 0.00 0.00 1014.6
20260905053558 -17 0.0 0.0 0.00 0.00 0.00 1014.6
20260905053113 -17 0.0 0.0 0.00 0.00 0.00 1014.6
20260905052558 -17 0.0 0.0 0.00 0.00 0.00 1014.6
20260905052100 -17 0.0 0.0 0.00 0.00 0.00 1014.6
20260905051602 -17 0.0 0.0 0.00 0.00 0.00 1014.9
20260905051059 -17 0.0 0.0 0.00 0.00 0.00 1014.7
20260905050559 -17 0.0 0.0 0.00 0.00 0.00 1014.9
20260905050105 -17 0.0 0.0 0.00 0.00 0.00 1015.0
20260905045559 -17 0.0 0.0 0.00 0.00 0.00 1014.9
20260905045059 -17 0.0 0.0 0.00 0.00 0.00 1015.0
20260905044601 -17 0.0 0.0 0.00 0.00 0.00 1015.0
20260905044058 -17 0.0 0.0 0.00 0.00 0.00 1015.0
20260905043559 -17 0.0 0.0 0.00 0.00 0.00 1014.9
20260905043109 -17 0.0 0.0 0.00 0.00 0.00 1014.9
20260905042558 -17 0.0 0.0 0.00 0.00 0.00 1015.0
20260905042059 -17 0.0 0.0 0.00 0.00 0.00 1015.0
20260905041601 -17 0.0 0.0 0.00 0.00 0.00 1015.0
20260905041059 -17 0.0 0.0 0.00 0.00 0.00 1014.9
20260905040559 -17 0.0 0.0 0.00 0.00 0.00 1014.9
20260905040104 -17 0.0 0.0 0.00 0.00 0.00 1014.9
20260905035600 -17 0.0 0.0 0.00 0.00 0.00 1015.0
20260905035059 -17 0.0 0.0 0.00 0.00 0.00 1015.0
20260905034601 -17 0.0 0.0 0.00 0.00 0.00 1014.9
20260905034058 -17 0.0 0.0 0.00 0.00 0.00 1014.9
20260905033557 -17 0.0 0.0 0.00 0.00 0.00 1014.9
20260905033104 -17 0.0 0.0 0.00 0.00 0.00 1014.7
20260905032600 -17 0.0 0.0 0.00 0.00 0.00 1014.7
20260905032103 -17 0.0 0.0 0.00 0.00 0.00 1014.6
20260905031602 -17 0.0 0.0 0.00 0.00 0.00 1014.7
20260905031059 -17 0.0 0.0 0.00 0.00 0.00 1014.9
20260905030559 -17 0.0 0.0 0.00 0.00 0.00 1014.9
20260905030107 -17 0.0 0.0 0.00 0.00 0.00 1014.9
20260905025559 -17 0.0 0.0 0.00 0.00 0.00 1014.9
20260905025059 -17 0.0 0.0 0.00 0.00 0.00 1014.9
20260905024641 -17 0.0 0.0 0.00 0.00 0.00 1014.9
20260905024102 -17 0.0 0.0 0.00 0.00 0.00 1014.9
20260905023556 -17 0.0 0.0 0.00 0.00 0.00 1014.7
20260905023111 -17 0.0 0.0 0.00 0.00 0.00 1014.7
20260905022559 -17 0.0 0.0 0.00 0.00 0.00 1015.0
20260905022059 -17 0.0 0.0 0.00 0.00 0.00 1014.9
20260905021605 -17 0.0 0.0 0.00 0.00 0.00 1015.0
20260905021057 -17 0.0 0.0 0.00 0.00 0.00 1015.2
20260905020557 -17 0.0 0.0 0.00 0.00 0.00 1015.2
20260905015557 -17 0.0 0.0 0.00 0.00 0.00 1015.2
20260905015101 -17 0.0 0.0 0.00 0.00 0.00 1015.3
20260905014605 -17 0.0 0.0 0.00 0.00 0.00 1015.3
20260905014101 -17 0.0 0.0 0.00 0.00 0.00 1015.3
20260905013558 -17 0.0 0.0 0.00 0.00 0.00 1015.4
20260905013117 -17 0.0 0.0 0.00 0.00 0.00 1015.2
20260905012556 -17 0.0 0.0 0.00 0.00 0.00 1015.2
20260905012058 -17 0.0 0.0 0.00 0.00 0.00 1015.1
20260905011604 -17 0.0 0.0 0.00 0.00 0.00 1015.1
20260905011100 -17 0.0 0.0 0.00 0.00 0.00 1015.2
20260905010559 -17 0.0 0.0 0.00 0.00 0.00 1015.1
20260905010109 -17 0.0 0.0 0.00 0.00 0.00 1015.2
20260905005557 -17 0.0 0.0 0.00 0.00 0.00 1015.1
20260905005058 -17 0.0 0.0 0.00 0.00 0.00 1015.3
20260905004606 -17 0.0 0.0 0.00 0.00 0.00 1015.3
20260905004059 -17 0.0 0.0 0.00 0.00 0.00 1015.3
20260905003559 -17 0.0 0.0 0.00 0.00 0.00 1015.2